Voltar ao catálogo

SHIYAN 30 01

AtivoCiênciaVLEO
NORAD 65851·PAYLOAD·🇨🇳 China

Lançado Sep 29, 2025 de Xichang Satellite Launch Center

Loading…

Próximas Passagens (próximas 24 horas)

TLE

AtualizadoSource: Space-Track

Época: Sep 14, 2026, 18:26 UTC

1 65851U 25222A   26257.76838396  .00001394  00000-0  13772-3 0  9990
2 65851  34.9879  85.0909 0001841 201.1344 158.9285 14.91958756 52423

Acompanhe SHIYAN 30 01 em tempo real com AllMySat

Download on the App Store